[[{"header":{"parameterUnit":"m.s-1","parameterCategory":1,"la1":30.2991,"la2":30.254,"lo1":-89.0895,"lo2":-89.0444,"dy":0.0017,"dx":0.0017,"nx":28,"ny":28,"refTime":"2023-09-04T03:00:00:Z","depth":0,"parameterNumber":2,"parameterNumberName":"U-component_of_WINDS"},"data":[0,0,0,0,0,0,0,0,0,0,0,0,0,0,0,0,0,0,0,0,0,0,0,0,0,0,0,0,0,0,0,0,0,0,0,0,0,0,0,0,0,0,0,0,0,0,0,0,0,0,0,0,0,0,0,0,0,0,-5.1351,-5.1352,0,-5.1444,-5.1446,-5.1447,-5.1422,-5.142,-5.1418,-5.1417,-5.1506,-5.151,-5.1514,0,0,0,0,0,0,0,0,0,0,0,0,0,-5.1146,-5.115,-5.1351,-5.1352,-5.1353,-5.1444,-5.1446,-5.1447,-5.1422,-5.142,-5.1418,-5.1416,-5.1505,-5.151,-5.1515,0,0,0,0,0,0,0,0,0,0,0,0,0,-5.1237,-5.1152,-5.1351,-5.1352,-5.1353,-5.1444,-5.1446,-5.1447,-5.1423,-5.142,-5.1417,-5.1415,-5.1503,-5.1509,-5.1515,-5.1609,0,0,-5.1534,-5.1537,0,0,0,0,0,0,0,0,-5.1232,-5.1244,-5.1351,-5.1352,-5.1354,-5.1419,-5.1406,-5.1501,-5.1423,-5.1396,-5.1417,-5.1413,-5.1479,-5.1487,-5.151,-5.1613,-5.1617,-5.1535,-5.1538,-5.1541,-5.1543,0,0,0,0,0,0,0,-5.1226,-5.124,-5.1388,-5.1352,-5.1354,-5.1347,-5.1356,-5.1424,-5.1452,-5.1398,-5.1397,-5.1409,-5.1479,-5.1505,-5.1512,-5.1618,-5.1535,-5.154,-5.1544,-5.1546,-5.18,-5.1803,0,0,0,0,0,0,-5.1219,-5.1235,-5.1385,-5.1391,-5.1285,-5.1353,-5.1363,-5.1401,-5.1451,-5.1456,-5.1411,-5.1407,-5.1495,-5.1505,-5.1515,-5.1626,-5.1541,-5.1547,-5.155,-5.1797,-5.1801,-5.1804,0,0,0,0,0,0,-5.1215,-5.1233,-5.1381,-5.1313,-5.1331,-5.1359,-5.1401,-5.1404,-5.1429,-5.1461,-5.1465,-5.1432,-5.1494,-5.1507,-5.1586,-5.1628,-5.155,-5.1555,-5.1793,-5.1798,-5.1802,-5.1848,0,0,0,0,0,0,-5.1209,-5.1231,-5.1268,-5.1314,-5.1335,-5.1451,-5.1404,-5.1408,-5.1441,-5.1436,-5.1481,-5.1486,-5.1492,-5.1577,-5.1592,-5.1635,-5.156,-5.179,-5.1796,-5.1801,-5.1843,-5.1854,-5.1863,0,0,0,0,0,-5.1202,-5.1276,-5.127,-5.1288,-5.1381,-5.1454,-5.1465,-5.1473,-5.1444,-5.148,-5.1501,-5.1485,-5.1623,-5.1585,-5.1602,-5.1648,-5.1787,-5.1794,-5.18,-5.1838,-5.1852,-5.1863,0,0,0,0,0,0,-5.1232,-5.1282,-5.1275,-5.1367,-5.1407,-5.1449,-5.1495,-5.1487,-5.1534,-5.1528,-5.1534,-5.1544,-5.1624,-5.1645,-5.1602,-5.174,-5.17,-5.1711,-5.1723,-5.1736,-5.1746,-5.1737,-5.1565,0,0,0,0,0,-5.125,-5.1306,-5.1346,-5.1423,-5.1444,-5.1466,-5.1498,-5.1501,-5.1541,-5.1557,-5.1583,-5.1621,-5.1673,-5.1706,-5.1756,-5.1848,-5.1855,-5.1888,-5.1898,-5.1906,-5.1913,-5.1961,-5.1975,-5.1827,-5.1826,-5.1826,0,0,-5.1286,-5.132,-5.1355,-5.143,-5.1461,-5.1517,-5.148,-5.1541,-5.1582,-5.1565,-5.1641,-5.1662,-5.1705,-5.179,-5.1829,-5.181,-5.1957,-5.1915,-5.1921,-5.1924,-5.197,-5.1984,-5.1996,-5.1831,-5.183,-5.183,0,0,-5.1379,-5.1413,-5.1479,-5.1512,-5.156,-5.1575,-5.1591,-5.1636,-5.165,-5.1727,-5.1715,-5.1764,-5.1854,-5.1884,-5.1911,-5.202,-5.2006,-5.2036,-5.2086,-5.2133,-5.2145,-5.2155,-5.219,-5.2204,-5.2044,-5.2045,-5.2045,0,-5.1417,-5.1503,-5.1514,-5.1576,-5.1609,-5.16,-5.1666,-5.1697,-5.1758,-5.1779,-5.1758,-5.1871,-5.1899,-5.199,-5.2017,-5.2041,-5.2057,-5.2028,-5.2143,-5.2153,-5.2163,-5.2197,-5.221,-5.2048,-5.2047,-5.2047,-5.2047,0,-5.1545,-5.1605,-5.1653,-5.1714,-5.1753,-5.1817,-5.1836,-5.1874,-5.1875,-5.1891,-5.1969,-5.2004,-5.206,-5.2083,-5.2083,-5.2174,-5.216,-5.2142,-5.21,-5.218,-5.2211,-5.2225,-5.2052,-5.2051,-5.205,-5.2049,0,0,-5.1655,-5.1725,-5.1741,-5.1769,-5.1823,-5.1868,-5.1932,-5.1989,-5.2019,-5.2063,-5.2114,-5.2192,-5.2175,-5.2206,-5.221,-5.2252,-5.2332,-5.2228,-5.2229,-5.2242,-5.2431,-5.2442,-5.2457,-5.2326,-5.2328,-5.233,-5.2426,0,-5.1751,-5.1864,-5.1877,-5.1977,-5.2031,-5.2025,-5.208,-5.2118,-5.2137,-5.2184,-5.2204,-5.2257,-5.2233,-5.2251,-5.2293,-5.2314,-5.2369,-5.2308,-5.237,-5.2372,-5.2355,-5.2474,-5.2485,-5.2574,-5.2439,-5.2441,-5.2443,0,-5.1875,-5.1924,-5.203,-5.2076,-5.2099,-5.2149,-5.2202,-5.2249,-5.2291,-5.2302,-5.2338,-5.2338,-5.2402,-5.2363,-5.2449,-5.2407,-5.2434,-5.2449,-5.2453,-5.2454,-5.2409,-5.2475,-5.2603,-5.2614,-5.2463,-5.2461,-5.246,0,-5.194,-5.2033,-5.2108,-5.2132,-5.2189,-5.2223,-5.2249,-5.2289,-5.2323,-5.2369,-5.239,-5.2444,-5.2471,-5.2512,-5.2525,-5.2496,-5.261,-5.2573,-5.2618,-5.2618,-5.2638,-5.2635,-5.2767,-5.2664,-5.2663,-5.2663,-5.2663,0,-5.2042,-5.2106,-5.2138,-5.2183,-5.2254,-5.227,-5.2339,-5.2362,-5.2399,-5.2448,-5.2447,-5.2492,-5.251,-5.2557,-5.2569,-5.2637,-5.2651,-5.2659,-5.266,-5.2657,-5.2655,-5.2671,-5.2663,-5.2667,-5.2666,-5.2665,-5.2665,0,-5.2124,-5.2149,-5.2229,-5.2278,-5.2292,-5.2342,-5.2382,-5.2425,-5.2445,-5.2507,-5.2522,-5.2552,-5.2608,-5.2627,-5.2695,-5.2703,-5.2782,-5.278,-5.2767,-5.2766,-5.2809,-5.2803,-5.2951,-5.297,-5.2858,-5.2859,-5.286,0,-5.2185,-5.2235,-5.2289,-5.2323,-5.235,-5.2404,-5.2438,-5.2456,-5.2492,-5.2546,-5.2582,-5.2639,-5.2684,-5.2775,-5.2801,-5.2853,-5.285,-5.2899,-5.2857,-5.2851,-5.2846,-5.2841,-5.2844,-5.2904,-5.2905,-5.2906,-5.2907,0,-5.229,-5.23,-5.2351,-5.2406,-5.2448,-5.2492,-5.2535,-5.2562,-5.2586,-5.2626,-5.2684,-5.272,-5.2791,-5.2846,-5.29,-5.2924,-5.2918,-5.2921,-5.2933,-5.2927,-5.2916,-5.2919,-5.2783,-5.2916,-5.2915,-5.2915,-5.2914,-5.2914,-5.236,-5.2403,-5.2449,-5.2505,-5.254,-5.258,-5.2623,-5.2649,-5.2699,-5.2758,-5.2766,-5.2829,-5.2871,-5.2943,-5.297,-5.3018,-5.3004,-5.3023,-5.3027,-5.303,-5.3032,-5.2913,-5.3029,-5.3028,-5.3028,-5.3028,-5.3028,0,-5.2461,-5.2491,-5.2543,-5.2604,-5.2648,-5.2644,-5.2691,-5.2727,-5.2783,-5.2824,-5.287,-5.2937,-5.2991,-5.3024,-5.3078,-5.311,-5.3109,-5.3123,-5.3118,-5.3124,-5.3043,-5.3025,-5.3123,-5.3123,-5.3123,-5.3123,-5.3123,-5.3123,-5.2519,-5.259,-5.2606,-5.2695,-5.2724,-5.2786,-5.2813,-5.285,-5.2883,-5.2958,-5.3004,-5.3026,-5.3063,-5.312,-5.317,-5.3178,-5.3196,-5.3211,-5.3217,-5.314,-5.3129,-5.312,-5.3103,-5.3216,-5.3216,-5.3293,-5.3294,-5.3294]},{"header":{"parameterUnit":"m.s-1","parameterCategory":1,"la1":30.2991,"la2":30.254,"lo1":-89.0895,"lo2":-89.0444,"dy":0.0017,"dx":0.0017,"nx":28,"ny":28,"refTime":"2023-09-04T03:00:00:Z","depth":0,"parameterNumber":3,"parameterNumberName":"V-component_of_WINDS"},"data":[0,0,0,0,0,0,0,0,0,0,0,0,0,0,0,0,0,0,0,0,0,0,0,0,0,0,0,0,0,0,0,0,0,0,0,0,0,0,0,0,0,0,0,0,0,0,0,0,0,0,0,0,0,0,0,0,0,0,2.7938,2.7939,0,2.8086,2.8088,2.8089,2.8074,2.8072,2.807,2.8067,2.8217,2.8223,2.8229,0,0,0,0,0,0,0,0,0,0,0,0,0,2.7642,2.7647,2.7938,2.794,2.7941,2.8086,2.8088,2.809,2.8075,2.8072,2.8069,2.8066,2.8215,2.8222,2.823,0,0,0,0,0,0,0,0,0,0,0,0,0,2.7778,2.7649,2.7937,2.7951,2.7954,2.8085,2.8088,2.809,2.8075,2.8072,2.8068,2.8065,2.8213,2.8221,2.8231,2.8356,0,0,2.8259,2.8263,0,0,0,0,0,0,0,0,2.777,2.7789,2.7948,2.7951,2.7954,2.8058,2.8038,2.8179,2.8076,2.8029,2.8067,2.8063,2.8167,2.8179,2.8215,2.8363,2.837,2.8259,2.8265,2.8269,2.8272,0,0,0,0,0,0,0,2.7761,2.7782,2.7996,2.795,2.7954,2.795,2.7966,2.8065,2.8115,2.8033,2.8032,2.805,2.8168,2.8206,2.8218,2.8372,2.8259,2.8267,2.8273,2.8277,2.8634,2.8638,0,0,0,0,0,0,2.7748,2.7775,2.7991,2.8001,2.7852,2.7958,2.7976,2.8028,2.8114,2.8124,2.8053,2.8049,2.8192,2.8207,2.8223,2.8378,2.8269,2.8277,2.8283,2.863,2.8635,2.8639,0,0,0,0,0,0,2.7742,2.7768,2.7986,2.7888,2.7915,2.7967,2.8026,2.8033,2.8071,2.813,2.8138,2.8083,2.819,2.821,2.8324,2.8383,2.8282,2.829,2.8625,2.8631,2.8637,2.8687,0,0,0,0,0,0,2.7734,2.7766,2.7814,2.7889,2.792,2.8084,2.803,2.8038,2.8087,2.8083,2.816,2.8169,2.8189,2.8311,2.8333,2.8394,2.8297,2.862,2.8628,2.8635,2.868,2.8694,2.8705,0,0,0,0,0,2.7723,2.7821,2.7816,2.7843,2.7982,2.8087,2.8105,2.8127,2.8092,2.8141,2.8179,2.8167,2.8373,2.8322,2.8348,2.8412,2.8616,2.8626,2.8634,2.8675,2.8691,2.8705,0,0,0,0,0,0,2.775,2.7831,2.7827,2.7952,2.8013,2.8085,2.8147,2.8143,2.8215,2.8208,2.8231,2.8248,2.8363,2.8399,2.8341,2.8539,2.849,2.8504,2.8512,2.8528,2.854,2.8529,2.8305,0,0,0,0,0,2.7771,2.785,2.7916,2.8021,2.8052,2.8094,2.8141,2.8153,2.8216,2.8242,2.8288,2.835,2.8429,2.8481,2.8556,2.8686,2.8703,2.8742,2.8755,2.8765,2.8777,2.885,2.8869,2.8668,2.8668,2.8668,0,0,2.7814,2.7868,2.7916,2.8028,2.8076,2.8158,2.8116,2.8204,2.8265,2.8255,2.8366,2.8402,2.8473,2.8596,2.8652,2.8629,2.8837,2.8776,2.8784,2.8791,2.8861,2.888,2.8897,2.8674,2.8673,2.8672,0,0,2.7935,2.7983,2.8076,2.8127,2.8202,2.823,2.8252,2.8326,2.835,2.8462,2.8457,2.8529,2.8664,2.8716,2.876,2.8903,2.8895,2.8927,2.8993,2.9064,2.9079,2.9093,2.9146,2.9164,2.8939,2.8939,2.8939,0,2.7978,2.8102,2.8124,2.8214,2.8263,2.826,2.8355,2.8402,2.8498,2.8532,2.8505,2.8677,2.8724,2.8859,2.8895,2.893,2.8957,2.8918,2.9075,2.909,2.9103,2.9153,2.9173,2.8943,2.8942,2.8942,2.8942,0,2.8153,2.8239,2.8305,2.8399,2.8456,2.8548,2.8584,2.8639,2.8647,2.8678,2.8793,2.885,2.8938,2.8971,2.8978,2.9109,2.9092,2.907,2.9021,2.9126,2.9173,2.9192,2.8948,2.8947,2.8945,2.8945,0,0,2.8293,2.84,2.8424,2.8468,2.8552,2.8618,2.8711,2.8798,2.8845,2.8912,2.899,2.9106,2.9087,2.9137,2.915,2.9212,2.9324,2.9183,2.9185,2.9208,2.9473,2.9489,2.9511,2.932,2.9323,2.9326,2.9467,0,2.8422,2.8586,2.861,2.8755,2.8835,2.8834,2.8915,2.8975,2.9007,2.908,2.9116,2.9198,2.9166,2.9197,2.9258,2.9297,2.9378,2.9288,2.9393,2.9396,2.9375,2.9535,2.9552,2.9682,2.9486,2.9489,2.9491,0,2.8595,2.8668,2.8821,2.8896,2.8931,2.9003,2.9086,2.9156,2.9225,2.9244,2.9301,2.9307,2.9404,2.9351,2.9484,2.9423,2.9467,2.9494,2.9499,2.951,2.945,2.955,2.9724,2.9743,2.952,2.9518,2.9516,0,2.8683,2.8819,2.8929,2.8966,2.9056,2.9107,2.9147,2.9213,2.9265,2.9338,2.9372,2.9454,2.95,2.9564,2.9593,2.9552,2.9725,2.9674,2.9744,2.9743,2.978,2.9777,2.9963,2.9808,2.9808,2.9808,2.9807,0,2.8825,2.8918,2.897,2.9038,2.9143,2.917,2.9274,2.9312,2.9371,2.9446,2.9451,2.9521,2.9555,2.9631,2.9654,2.9762,2.9782,2.98,2.9805,2.98,2.9798,2.9829,2.9821,2.9813,2.9812,2.9811,2.981,0,2.894,2.8978,2.9098,2.9175,2.9196,2.9271,2.9336,2.9402,2.9435,2.953,2.9554,2.9605,2.9695,2.973,2.9839,2.9855,2.9979,2.9977,2.9956,2.9958,3.0026,3.0019,3.0239,3.0269,3.0094,3.0095,3.0097,0,2.9028,2.9101,2.9186,2.9237,2.9279,2.9361,2.9415,2.9445,2.9501,2.9586,2.9642,2.9732,2.9805,2.9949,2.9996,3.008,3.008,3.0151,3.0092,3.0086,3.0082,3.0077,3.0085,3.0162,3.0164,3.0165,3.0166,0,2.9181,2.9197,2.9275,2.936,2.9424,2.9492,2.9559,2.96,2.9641,2.9703,2.9796,2.9853,2.9966,3.0056,3.0143,3.0184,3.0183,3.0185,3.0205,3.0201,3.0186,3.0196,2.9986,3.0179,3.0178,3.0177,3.0176,3.0176,2.9286,2.9351,2.9422,2.9509,2.9563,2.9625,2.9691,2.9733,2.9811,2.9906,2.9919,3.0019,3.0088,3.0205,3.025,3.0329,3.031,3.034,3.0347,3.0354,3.0359,3.0174,3.0344,3.0344,3.0344,3.0344,3.0343,0,2.944,2.9486,2.9566,2.9659,2.9728,2.9722,2.9796,2.9854,2.9942,3.0007,3.008,3.0187,3.0275,3.0329,3.0418,3.047,3.0472,3.0492,3.0489,3.0499,3.037,3.0344,3.049,3.049,3.049,3.049,3.049,3.0489,2.9528,2.9638,2.9663,2.9801,2.9846,2.9945,2.9988,3.0046,3.0098,3.0218,3.0292,3.0327,3.0389,3.0482,3.0562,3.0576,3.0609,3.0631,3.0643,3.0522,3.0507,3.0493,3.0468,3.0637,3.0638,3.0765,3.0766,3.0767]}]]